Location: Unspecified
(54.1780°N, 0.0000°E)
Time: 18:07:33
(UTC+00:00)

S-56A Canister/Altair - Pass Details

Date: 18 June 2019
Orbit: 633 x 2499 km, 38.9° (Epoch: 19 August)

Event Time Altitude Azimuth Distance (km) Brightness Sun altitude
Rises 19:52:39 0° 246° (WSW) 3,650 11.5 4.1°
Reaches altitude 10° 19:56:44 10° 223° (SW) 2,400 10.2 3.6°
Maximum altitude 19:59:31 14° 191° (SSW) 1,956 9.4 3.3°
Drops below altitude 10° 20:02:01 10° 159° (SSE) 2,113 9.3 3.0°
Sets 20:05:13 0° 133° (SE) 2,933 9.8 2.6°
